Location: *
(9.9772°S, 113.2358°E)
Time: 06:45:35
(UTC+00:00)

Okean O Rocket - Pass Details

Date: 30 September 2022
Orbit: 621 x 644 km, 98.2° (Epoch: 06 December)

Event Time Altitude Azimuth Distance (km) Brightness Sun altitude
Rises 11:30:36 0° 154° (SSE) 2,907 4.8 -17.5°
Enters shadow 11:31:22 - 152° (SSE) 2,604 4.5 -17.7°
Exits shadow 11:41:43 - 9° (N) 2,319 4.3 -20.3°
Sets 11:43:08 0° 5° (N) 2,881 4.9 -20.6°
